Preview of NWS' New Version of Forecast
This preview is not operational and should not be used for support decisions.
Latest weather observations around

Houston, Houston Hobby Airport (KHOU)

Using International System of Units (Switch to English Units)
Date/ Time (CDT) Wind (kph) Vis. (km) Weather Sky Cond. Temp (°C) Rel. Humidity Wind Chill (°C) Heat Index (°C) Pressure Precip. (cm)
Air Dwpt 6 hour Altimeter (hPa) Sea level (hPa) 1 hr 3 hr 6 hr
Max Min
Aug 25 13:00   1.21 Thunderstorms and Heavy Rain and Fog/Mist SCT010 BKN020 OVC037 26 24     88%   28 1011.2   1    
Aug 25 12:57   2.41 Thunderstorms and Heavy Rain BKN010 BKN030 BKN037 27 24     82%   30 1011.2   0    
Aug 25 12:53   14.48 Thunderstorms BKN010 BKN035 BKN110 BKN250 28 23     77%   31 1011.2 1011.7      
Aug 25 12:50   16.09 Thunderstorms BKN010 BKN035 BKN110 BKN250 28 23     74%   31 1011.2        
Aug 25 11:53 W 9 16.09 Thunderstorms BKN030 BKN110 BKN250 33 23     57%   38 1011.2 1011.6      
Aug 25 10:53 Calm 16.09 Mostly Cloudy SCT022 BKN030 BKN110 BKN250 31 24     68%   37 1012.2 1012.4      
Aug 25 09:53 WSW 8 16.09 Mostly Cloudy SCT030 BKN090 BKN250 30 25     75%   36 1011.9 1012.2      
Aug 25 08:53 W 5 16.09 Mostly Cloudy FEW020 SCT030 BKN150 BKN250 28 25     85%   32 1012.2 1012.4      
Aug 25 07:53 SW 5 16.09 Mostly Cloudy SCT020 SCT030 BKN150 BKN250 27 24     85%   31 1011.2 1011.6      
Aug 25 06:53 S 5 16.09 Cloudy SCT018 SCT024 SCT150 OVC250 27 24     87%   30 1011.2 1011.4      
Aug 25 06:46 S 5 16.09 Cloudy SCT018 SCT024 SCT150 OVC250 27 24     87%   30 1011.2        
Aug 25 06:32 S 5 16.09 Cloudy BKN016 BKN024 BKN150 OVC250 27 24     87%   30 1011.2        
Aug 25 05:53 S 5 16.09 Mostly Cloudy FEW015 FEW060 SCT120 BKN180 27 24     87%   30 1010.8 1011.1      
Aug 25 04:53 Calm 16.09 Cloudy FEW015 FEW050 BKN160 OVC250 27 24     85%   31 1011.2 1011.5      
Aug 25 03:53 Calm 16.09 Cloudy FEW015 SCT050 BKN180 OVC250 27 24     85%   31 1011.5 1011.7      
Aug 25 02:53 Calm 16.09 Cloudy FEW018 FEW050 BKN180 OVC250 27 24     87%   30 1011.2 1011.5      
Aug 25 02:06 SSW 8 16.09 Cloudy FEW018 SCT045 BKN140 OVC200 27 24     87%   30 1011.2        
Aug 25 01:53 SW 8 16.09 Cloudy FEW018 SCT045 BKN140 OVC200 27 24     87%   30 1011.2 1011.6      
Aug 25 00:53 SSW 8 16.09 Cloudy FEW015 SCT050 OVC250 27 24     87%   30 1012.2 1012.6      
Aug 24 23:53 SSW 11 16.09 Cloudy FEW035 SCT045 BKN180 OVC250 27 24     85%   31 1012.5 1013      
Aug 24 22:53 SSW 8 16.09 Mostly Cloudy FEW036 SCT046 BKN250 27 24     82%   30 1012.9 1013.2      
Aug 24 21:53 S 11 16.09 Mostly Cloudy FEW030 BKN250 28 24     79%   32 1012.5 1012.8      
Aug 24 20:53 S 13 16.09 Mostly Cloudy FEW030 BKN250 28 24     77%   32 1011.9 1012.1      
Aug 24 19:53 SSE 15 16.09 Mostly Cloudy FEW035 BKN250 29 24     74%   33 1011.2 1011.4      
Aug 24 18:53 S 17 16.09 Mostly Cloudy FEW035 BKN250 31 24     68%   36 1010.5 1010.8      
Aug 24 17:53 SSE 17 16.09 Clear CLR 31 23     63%   36 1009.8 1010.2      
Aug 24 16:53 S 17 16.09 Clear CLR 32 23     59%   37 1010.2 1010.3      
Aug 24 15:53 SSW 13 16.09 Mostly Cloudy SCT035 BKN250 32 23     58%   37 1010.8 1011.1      
Aug 24 14:53 ESE 13 16.09 Mostly Cloudy SCT035 BKN250 32 23     58%   37 1011.5 1011.8      
Aug 24 13:53 SE 13 16.09 Mostly Cloudy SCT034 BKN250 31 23     63%   36 1012.5 1012.9      
Aug 24 12:53 11 16.09 Mostly Cloudy BKN030 BKN038 BKN250 32 23     59%   36 1013.2 1013.5      
Aug 24 11:53 8 16.09 Mostly Cloudy BKN015 BKN250 31 23     63%   35 1013.6 1013.8      
Aug 24 10:53 8 16.09 Mostly Cloudy SCT014 BKN050 BKN250 29 23     70%   34 1013.2 1013.6      
Aug 24 09:53 ENE 13 16.09 Mostly Cloudy FEW013 SCT019 BKN050 BKN250 28 24     77%   32 1013.6 1014      
Aug 24 08:53 NE 8 16.09 Mostly Cloudy FEW020 SCT027 BKN050 BKN250 28 24     79%   32 1013.6 1014      
Aug 24 07:53 NNE 9 16.09 Mostly Cloudy SCT020 BKN027 BKN050 BKN250 27 24     85%   29 1013.2 1013.5      
Aug 24 06:53 N 11 16.09 Mostly Cloudy SCT020 BKN050 BKN250 26 23     85%   28 1012.9 1013.4      
Aug 24 05:53 N 9 16.09 Mostly Cloudy FEW020 SCT030 SCT150 BKN250 26 23     87%   26 1012.2 1012.6      
Aug 24 04:53 NE 5 16.09 Mostly Cloudy FEW015 FEW030 SCT150 BKN250 26 23     85%   26 1012.5 1013.1      
Aug 24 03:53 N 5 16.09 Mostly Cloudy FEW015 FEW030 SCT150 BKN250 26 23     87%   26 1012.9 1013.3      
Aug 24 02:53 Calm 16.09 Mostly Cloudy FEW020 FEW030 BKN250 26 23     85%   26 1012.5 1013      
Aug 24 01:53 Calm 16.09 Mostly Cloudy FEW020 FEW030 BKN250 27 23     79%   29 1012.5 1012.9      
Aug 24 00:53 ESE 5 16.09 Mostly Cloudy FEW020 FEW030 BKN250 26 23     85%   28 1012.2 1012.7      
Aug 23 23:53 SSE 5 16.09 Mostly Cloudy SCT020 BKN250 27 23     79%   29 1012.5 1012.8      
Aug 23 22:53 SE 9 16.09 Mostly Cloudy FEW025 BKN250 27 23     82%   29 1012.2 1012.4      
Aug 23 21:53 ESE 13 16.09 Mostly Cloudy FEW027 BKN250 27 23     79%   30 1012.5 1012.8      
Aug 23 20:53 SE 13 16.09 Mostly Cloudy FEW016 SCT032 SCT210 BKN250 27 23     79%   30 1011.9 1012.3      
Aug 23 19:53 SSE 9 16.09 Mostly Cloudy SCT017 SCT025 BKN210 BKN250 28 24     79%   32 1011.9 1012.2      
Aug 23 18:53 SE 15 16.09 Mostly Cloudy SCT017 SCT220 BKN250 28 23     77%   31 1011.2 1011.5     2
Aug 23 17:53 SE 13 16.09 Mostly Cloudy FEW013 SCT140 SCT210 BKN250 28 24     82%   32 1011.5 1012.1      
Aug 23 16:53 SE 18 16.09 Mostly Cloudy FEW045 SCT170 BKN220 BKN250 28 24     79%   32 1011.9 1012.4      
Aug 23 15:53 ESE 15 16.09 Mostly Cloudy SCT040 SCT080 BKN140 BKN250 27 24     85%   29 1012.5 1013.1   2  
Aug 23 14:53 S 9 16.09 Mostly Cloudy SCT038 SCT060 BKN110 BKN250 26 23     85%   28 1013.2 1013.5 0    
Aug 23 14:06 SE 18 16.09 Mostly Cloudy SCT033 SCT060 BKN110 26 24     88%   28 1013.2   0    
Aug 23 13:53 SE 22 14.48 Light Rain SCT045 BKN070 OVC085 26 24     88%   28 1012.9 1013.3 2    
Aug 23 13:47 ESE 21 12.87 Light Rain FEW055 BKN070 OVC100 27 24     84%   30 1013.6   2    
Aug 23 13:39 E 22 11.27 Light Rain FEW050 BKN070 OVC085 27 24     87%   30 1013.2   2    
Aug 23 13:22 E 21 8.05 Thunderstorms and Heavy Rain and Fog/Mist BKN026 BKN050 OVC070 26 24     90%   27 1013.2   2    
Aug 23 13:13 NE 18 2.41 Thunderstorms and Heavy Rain and Fog/Mist BKN026 BKN030 OVC039 24 23     91%   25 1013.6   2    
Aug 23 13:00   0.8 Thunderstorms and Heavy Rain and Fog BKN026 BKN030 OVC039 24 23     91%   25 1013.6   1    
Aug 23 12:53   0.8 Thunderstorms and Heavy Rain and Fog FEW023 BKN030 OVC039 25 24     94%   26 1013.6 1014.1 1   1
Aug 23 12:48 ENE 30 1.21 Thunderstorms and Heavy Rain and Fog/Mist SCT036 BKN044 BKN250 26 24     89%   28 1013.9   1    
Aug 23 12:38   2.41 Thunderstorms and Heavy Rain SCT036 BKN044 BKN250 27 24     85%   31 1013.2   0    
Aug 23 12:34   11.27 Thunderstorms and Rain SCT036 BKN044 BKN250 29 24     74%   33 1013.2   0    
Aug 23 12:18 ENE 28 16.09 Thunderstorms SCT036 BKN044 BKN250 31 24     66%   37 1012.9        
Aug 23 11:53 S 8 16.09 Mostly Cloudy SCT030 BKN045 BKN250 32 23     59%   37 1012.5 1012.9      
Aug 23 10:53 WSW 8 16.09 Mostly Cloudy FEW030 SCT043 BKN100 BKN250 30 23     67%   34 1012.9 1013.2 0    
Aug 23 10:24 5 16.09 Light Rain SCT025 BKN029 BKN250 30 25     75%   36 1012.9   0    
Aug 23 09:53 SSW 8 16.09 Mostly Cloudy SCT025 BKN029 BKN250 30 24     70%   35 1013.2 1013.4      
Aug 23 09:45 SSW 8 16.09 Mostly Cloudy SCT022 BKN029 BKN250 30 24     70%   35 1013.2        
Aug 23 08:53 S 8 16.09 Mostly Clear FEW020 FEW040 FEW250 29 24     75%   35 1013.6 1013.8      
Aug 23 07:53 SSE 5 16.09 Mostly Clear FEW020 28 24     82%   32 1013.2 1013.4      
Aug 23 06:53 Calm 16.09 Mostly Clear FEW020 27 24     85%   29 1012.9 1013.1      
Aug 23 05:53 E 5 16.09 Partly Cloudy FEW020 SCT250 27 24     82%   30 1012.5 1013      
Aug 23 04:53 S 5 16.09 Mostly Clear FEW020 FEW250 27 24     85%   29 1012.2 1012.6      
Aug 23 03:53 S 13 16.09 Partly Cloudy SCT020 SCT250 27 24     85%   31 1012.2 1012.4      
Aug 23 02:53 SE 8 16.09 Mostly Clear FEW020 FEW250 27 24     82%   30 1012.2 1012.7      
Aug 23 01:53 ESE 8 16.09 Mostly Clear FEW020 FEW250 27 24     82%   30 1012.9 1013.1      
Aug 23 00:53 SSE 9 16.09 Partly Cloudy FEW020 SCT250 28 24     82%   32 1012.9 1013.3      
Aug 22 23:53 SSE 9 16.09 Mostly Clear FEW020 FEW250 28 24     77%   32 1013.2 1013.6      
Aug 22 22:53 S 11 16.09 Mostly Clear FEW020 FEW250 28 24     77%   32 1013.6 1013.9      
Aug 22 21:53 SSE 9 16.09 Partly Cloudy FEW025 SCT250 29 24     74%   33 1012.9 1013.1      
Aug 22 20:53 SSE 17 16.09 Partly Cloudy SCT029 SCT250 29 24     72%   34 1012.5 1012.9      
Aug 22 19:53 SE 24 16.09 Partly Cloudy SCT032 SCT250 30 23     67%   34 1012.2 1012.4      
Aug 22 18:53 SE 22 16.09 Mostly Cloudy SCT037 BKN250 31 23     61%   35 1011.9 1012.1      
Aug 22 17:53 SE 28 16.09 Partly Cloudy SCT036 SCT250 32 22     56%   36 1011.5 1011.8      
Aug 22 16:53 ESE 24 16.09 Mostly Cloudy SCT050 BKN250 32 23     61%   37 1011.9 1012.2      
Aug 22 15:53 ESE 30 16.09 Partly Cloudy SCT040 SCT250 32 24     63%   37 1012.2 1012.6      
Aug 22 14:53 E 17 16.09 Partly Cloudy SCT040 SCT250 34 23     52%   39 1012.5 1012.8      
Aug 22 13:53 SE 15 16.09 Partly Cloudy FEW040 SCT250 33 23     56%   38 1013.2 1013.5      
May 14 04:53 ESE 5 16.09 Clear   22 22     100%   23 1014.6 1014.9      
May 12 17:53 SE 18 16.09 Partly Cloudy SCT040 30 22     61%   33 1014.2 1014.6      
May 12 04:37 SSE 8 16.09 Partly Cloudy SCT016 SCT040 23 23     97%   24 1014.9        
May 12 01:53 9 16.09 Partly Cloudy SCT030 SCT250 24 23     94%   25 1015.2 1015.5      
May 11 16:53 SE 26 16.09 Partly Cloudy SCT042 29 21     61%   31 1013.9 1014.3      
May 11 07:53 SSE 9 16.09 Mostly Clear FEW020 23 22     94%   24 1015.9 1016.3      
Jun 12 04:53 ESE 8 16.09 Mostly Clear FEW050 26 24     93%   27 1012.5 1012.9      
Jun 11 21:53 ESE 9 16.09 Clear   27 24     82%   30 1012.9 1013.3      
Jun 11 12:53 9 16.09 Mostly Cloudy SCT031 BKN050 BKN070 30 23     67%   34 1013.6 1013.9      
Jun 08 18:53 NE 13 16.09 Clear   30 16     42%   30 1010.8 1011.4      
Jun 08 03:53 ENE 8 16.09 Clear CLR 23 16     64%   23 1012.9 1013.2      
Jun 05 22:53 Calm 16.09 Mostly Cloudy SCT024 BKN100 BKN250 23 22     94%   24 1007.1 1007.6 0